Погода в Николаевке

Украина / Днепропетровская область     47°59′07″N   34°09′21″E
темп.,
°C
ветер,
м/с
пор.,
м/с
влажн.,
%
обл.,
%
осадки,
мм/ч
давл.,
гПа
погр.,
м
11 мая, вт
вт1100:00+10сз71466100 0.0 1018602
03:00+9ссз81581100 0.6 1017690
06:00+10ссз71381100 0.0 1016517
09:00+12с81374100 0.0 1014572
12:00+17ссв9116598 0.0 10141302
15:00+15св8127073 0.2 10151349
18:00+14всв795968 0.1 10151447
21:00+8св34745 0.1 101669
12 мая, ср
ср1200:00+7с39849 0.0 1015231
03:00+7с5985100 0.1 1014669
06:00+7всв5889100 0.1 1014556
09:00+8всв4679100 0.4 1014795
12:00+10в447194 0.7 1014929
15:00+12всв226092 1.6 10131323
18:00+12зсз116284 0.3 1013476
21:00+8всв007299 0.3 101310
13 мая, чт
чт1300:00+7юв2278100 0.0 101311
03:00+7юв228189 0.0 101310
06:00+7вюв33891 0.0 101440
09:00+14вюв33667 0.0 1014626
12:00+18ююв345597 0.0 10131187
15:00+21ююв4451100 0.0 10121398
18:00+20вюв2458100 0.0 1011564
21:00+17вюв356837 0.0 101175
14 мая, пт
пт1400:00+13юв3483100 0.0 101058
03:00+13юв34935 0.0 101051
06:00+13ю239598 0.0 101046
09:00+18ю3467100 0.0 1010406
12:00+22ю4544100 0.0 1010856
15:00+23ююз5643100 0.0 10101164
18:00+23ююз3651100 0.0 1009596
21:00+17ююз34660 0.0 100941
15 мая, сб
сб1500:00+15зюз348526 0.0 101052
03:00+13юз349168 0.0 101153
06:00+12юз24912 0.0 101195
09:00+18юз456864 0.0 1012489
12:00+22юз675397 0.2 10121634
15:00+23юз5744100 0.2 10122376
18:00+19юз3465100 0.0 1012172
21:00+16юз227150 0.0 101313